owner,sensor,date,latitude,longitude,vertical_datum,wind_speed,wind_to_direction,wind_speed_of_gust,qcFlag 
TCOON,ioos:station:TCOON:003:1,2008-10-01T00:00:00Z,26.8015,-97.4706,0.0,2.2,113.0,2.6,'11111222,11111222,11111222' 
TCOON,ioos:station:TCOON:003:1,2008-10-01T02:00:00Z,26.8015,-97.4706,0.0,2.4,223.0,2.7,'11111222,11111222,11111222' 
TCOON,ioos:station:TCOON:003:1,2008-10-01T03:00:00Z,26.8015,-97.4706,0.0,3.0,245.0,3.5,'11111222,11111222,11111222' 
TCOON,ioos:station:TCOON:003:1,2008-10-01T04:00:00Z,26.8015,-97.4706,0.0,3.0,236.0,3.3,'11111222,11111222,11111222' 
TCOON,ioos:station:TCOON:003:1,2008-10-01T05:00:00Z,26.8015,-97.4706,0.0,3.5,233.0,4.4,'11111222,11111222,11111222' 
TCOON,ioos:station:TCOON:003:1,2008-10-01T06:00:00Z,26.8015,-97.4706,0.0,4.1,243.0,4.7,'11111222,11111222,11111222' 
TCOON,ioos:station:TCOON:003:1,2008-10-01T07:00:00Z,26.8015,-97.4706,0.0,3.6,253.0,4.4,'11111222,11111222,11111222' 
TCOON,ioos:station:TCOON:003:1,2008-10-01T08:00:00Z,26.8015,-97.4706,0.0,3.7,273.0,4.3,'11111222,11111222,11111222' 
TCOON,ioos:station:TCOON:003:1,2008-10-01T09:00:00Z,26.8015,-97.4706,0.0,2.2,286.0,3.0,'11111222,11111222,11111222' 
TCOON,ioos:station:TCOON:003:1,2008-10-01T10:00:00Z,26.8015,-97.4706,0.0,1.9,299.0,2.2,'11111222,11111222,11111222' 
TCOON,ioos:station:TCOON:003:1,2008-10-01T11:00:00Z,26.8015,-97.4706,0.0,3.2,301.0,3.6,'11111222,11111222,11111222' 
TCOON,ioos:station:TCOON:003:1,2008-10-01T12:00:00Z,26.8015,-97.4706,0.0,3.0,321.0,3.4,'11111222,11111222,11111222' 
TCOON,ioos:station:TCOON:003:1,2008-10-01T13:00:00Z,26.8015,-97.4706,0.0,2.9,284.0,3.4,'11111222,11111222,11111222' 
TCOON,ioos:station:TCOON:003:1,2008-10-01T14:00:00Z,26.8015,-97.4706,0.0,2.5,270.0,3.0,'11111222,11111222,11111222' 
TCOON,ioos:station:TCOON:003:1,2008-10-01T15:00:00Z,26.8015,-97.4706,0.0,2.1,350.0,2.4,'11111222,11111222,11111222' 
TCOON,ioos:station:TCOON:003:1,2008-10-01T16:00:00Z,26.8015,-97.4706,0.0,2.0,4.0,2.2,'11111222,11111222,11111222' 
TCOON,ioos:station:TCOON:003:1,2008-10-01T17:00:00Z,26.8015,-97.4706,0.0,0.0,286.0,0.2,'11111222,11111222,11111222' 
TCOON,ioos:station:TCOON:003:1,2008-10-01T18:00:00Z,26.8015,-97.4706,0.0,3.0,93.0,3.9,'11111222,11111222,11111222' 
TCOON,ioos:station:TCOON:003:1,2008-10-01T19:00:00Z,26.8015,-97.4706,0.0,4.7,75.0,6.8,'11111222,11111222,11111222' 
TCOON,ioos:station:TCOON:003:1,2008-10-01T20:00:00Z,26.8015,-97.4706,0.0,4.1,49.0,5.1,'11111222,11111222,11111222' 
TCOON,ioos:station:TCOON:003:1,2008-10-01T21:00:00Z,26.8015,-97.4706,0.0,4.8,59.0,6.0,'11111222,11111222,11111222' 
TCOON,ioos:station:TCOON:003:1,2008-10-01T22:00:00Z,26.8015,-97.4706,0.0,5.1,78.0,6.1,'11111222,11111222,11111222' 
TCOON,ioos:station:TCOON:003:1,2008-10-01T23:00:00Z,26.8015,-97.4706,0.0,5.2,97.0,6.1,'11111222,11111222,11111222' 
TCOON,ioos:station:TCOON:003:1,2008-10-02T00:00:00Z,26.8015,-97.4706,0.0,4.2,107.0,5.1,'11111222,11111222,11111222' 
TCOON,ioos:station:TCOON:003:1,2008-10-02T01:00:00Z,26.8015,-97.4706,0.0,3.9,107.0,4.8,'11111222,11111222,11111222' 
TCOON,ioos:station:TCOON:003:1,2008-10-02T02:00:00Z,26.8015,-97.4706,0.0,4.0,119.0,5.0,'11111222,11111222,11111222' 
TCOON,ioos:station:TCOON:003:1,2008-10-02T03:00:00Z,26.8015,-97.4706,0.0,4.2,112.0,5.3,'11111222,11111222,11111222' 
TCOON,ioos:station:TCOON:003:1,2008-10-02T04:00:00Z,26.8015,-97.4706,0.0,2.5,144.0,3.1,'11111222,11111222,11111222' 
TCOON,ioos:station:TCOON:003:1,2008-10-02T05:00:00Z,26.8015,-97.4706,0.0,3.2,139.0,3.5,'11111222,11111222,11111222' 
TCOON,ioos:station:TCOON:003:1,2008-10-02T06:00:00Z,26.8015,-97.4706,0.0,3.3,161.0,3.7,'11111222,11111222,11111222' 
TCOON,ioos:station:TCOON:003:1,2008-10-02T07:00:00Z,26.8015,-97.4706,0.0,2.3,252.0,2.6,'11111222,11111222,11111222' 
TCOON,ioos:station:TCOON:003:1,2008-10-02T08:00:00Z,26.8015,-97.4706,0.0,0.8,266.0,1.1,'11111222,11111222,11111222' 
TCOON,ioos:station:TCOON:003:1,2008-10-02T09:00:00Z,26.8015,-97.4706,0.0,0.0,275.0,99.0,'11111222,11111222,11144222' 
TCOON,ioos:station:TCOON:003:1,2008-10-02T10:00:00Z,26.8015,-97.4706,0.0,0.8,321.0,1.2,'11111222,11111222,11111222' 
TCOON,ioos:station:TCOON:003:1,2008-10-02T11:00:00Z,26.8015,-97.4706,0.0,1.8,357.0,2.1,'11111222,11111222,11111222' 
TCOON,ioos:station:TCOON:003:1,2008-10-02T12:00:00Z,26.8015,-97.4706,0.0,2.6,356.0,3.0,'11111222,11111222,11111222' 
TCOON,ioos:station:TCOON:003:1,2008-10-02T13:00:00Z,26.8015,-97.4706,0.0,1.9,358.0,2.2,'11111222,11111222,11111222' 
TCOON,ioos:station:TCOON:003:1,2008-10-02T14:00:00Z,26.8015,-97.4706,0.0,1.6,352.0,1.7,'11111222,11111222,11111222' 
TCOON,ioos:station:TCOON:003:1,2008-10-02T15:00:00Z,26.8015,-97.4706,0.0,1.3,161.0,1.8,'11111222,11111222,11111222' 
TCOON,ioos:station:TCOON:003:1,2008-10-02T16:00:00Z,26.8015,-97.4706,0.0,2.1,169.0,2.6,'11111222,11111222,11111222' 
TCOON,ioos:station:TCOON:003:1,2008-10-02T17:00:00Z,26.8015,-97.4706,0.0,3.7,138.0,5.1,'11111222,11111222,11111222' 
TCOON,ioos:station:TCOON:003:1,2008-10-02T18:00:00Z,26.8015,-97.4706,0.0,4.0,152.0,5.4,'11111222,11111222,11111222' 
TCOON,ioos:station:TCOON:003:1,2008-10-02T19:00:00Z,26.8015,-97.4706,0.0,3.7,148.0,4.9,'11111222,11111222,11111222' 
TCOON,ioos:station:TCOON:003:1,2008-10-02T20:00:00Z,26.8015,-97.4706,0.0,4.1,138.0,5.8,'11111222,11111222,11111222' 
TCOON,ioos:station:TCOON:003:1,2008-10-02T21:00:00Z,26.8015,-97.4706,0.0,5.1,139.0,5.6,'11111222,11111222,11111222' 
TCOON,ioos:station:TCOON:003:1,2008-10-02T22:00:00Z,26.8015,-97.4706,0.0,4.4,131.0,5.4,'11111222,11111222,11111222' 
TCOON,ioos:station:TCOON:003:1,2008-10-02T23:00:00Z,26.8015,-97.4706,0.0,5.0,142.0,5.8,'11111222,11111222,11111222' 
TCOON,ioos:station:TCOON:003:1,2008-10-03T00:00:00Z,26.8015,-97.4706,0.0,4.8,150.0,5.6,'11111222,11111222,11111222' 
TCOON,ioos:station:TCOON:003:1,2008-10-03T01:00:00Z,26.8015,-97.4706,0.0,5.4,140.0,6.5,'11111222,11111222,11111222' 
TCOON,ioos:station:TCOON:003:1,2008-10-03T02:00:00Z,26.8015,-97.4706,0.0,5.5,144.0,6.3,'11111222,11111222,11111222' 
TCOON,ioos:station:TCOON:003:1,2008-10-03T03:00:00Z,26.8015,-97.4706,0.0,5.8,145.0,6.5,'11111222,11111222,11111222' 
TCOON,ioos:station:TCOON:003:1,2008-10-03T04:00:00Z,26.8015,-97.4706,0.0,5.8,152.0,6.9,'11111222,11111222,11111222' 
TCOON,ioos:station:TCOON:003:1,2008-10-03T05:00:00Z,26.8015,-97.4706,0.0,5.9,152.0,6.6,'11111222,11111222,11111222' 
TCOON,ioos:station:TCOON:003:1,2008-10-03T06:00:00Z,26.8015,-97.4706,0.0,6.5,155.0,7.5,'11111222,11111222,11111222' 
TCOON,ioos:station:TCOON:003:1,2008-10-03T07:00:00Z,26.8015,-97.4706,0.0,6.1,158.0,7.0,'11111222,11111222,11111222' 
TCOON,ioos:station:TCOON:003:1,2008-10-03T08:00:00Z,26.8015,-97.4706,0.0,7.7,165.0,8.7,'11111222,11111222,11111222' 
TCOON,ioos:station:TCOON:003:1,2008-10-03T09:00:00Z,26.8015,-97.4706,0.0,6.9,161.0,7.7,'11111222,11111222,11111222' 
TCOON,ioos:station:TCOON:003:1,2008-10-03T10:00:00Z,26.8015,-97.4706,0.0,6.7,164.0,7.5,'11111222,11111222,11111222' 
TCOON,ioos:station:TCOON:003:1,2008-10-03T11:00:00Z,26.8015,-97.4706,0.0,5.5,163.0,6.2,'11111222,11111222,11111222' 
TCOON,ioos:station:TCOON:003:1,2008-10-03T12:00:00Z,26.8015,-97.4706,0.0,2.2,229.0,3.0,'11111222,11111222,11111222' 
TCOON,ioos:station:TCOON:003:1,2008-10-03T13:00:00Z,26.8015,-97.4706,0.0,2.1,209.0,2.5,'11111222,11111222,11111222' 
TCOON,ioos:station:TCOON:003:1,2008-10-03T14:00:00Z,26.8015,-97.4706,0.0,4.2,180.0,4.8,'11111222,11111222,11111222' 
TCOON,ioos:station:TCOON:003:1,2008-10-03T15:00:00Z,26.8015,-97.4706,0.0,5.5,184.0,6.8,'11111222,11111222,11111222' 
TCOON,ioos:station:TCOON:003:1,2008-10-03T16:00:00Z,26.8015,-97.4706,0.0,5.6,180.0,6.5,'11111222,11111222,11111222' 
TCOON,ioos:station:TCOON:003:1,2008-10-03T17:00:00Z,26.8015,-97.4706,0.0,5.8,180.0,6.7,'11111222,11111222,11111222' 
TCOON,ioos:station:TCOON:003:1,2008-10-03T18:00:00Z,26.8015,-97.4706,0.0,5.9,166.0,6.6,'11111222,11111222,11111222' 
TCOON,ioos:station:TCOON:003:1,2008-10-03T19:00:00Z,26.8015,-97.4706,0.0,5.5,154.0,6.9,'11111222,11111222,11111222' 
TCOON,ioos:station:TCOON:003:1,2008-10-03T20:00:00Z,26.8015,-97.4706,0.0,6.0,139.0,7.1,'11111222,11111222,11111222' 
TCOON,ioos:station:TCOON:003:1,2008-10-03T21:00:00Z,26.8015,-97.4706,0.0,5.6,144.0,7.0,'11111222,11111222,11111222' 
TCOON,ioos:station:TCOON:003:1,2008-10-03T22:00:00Z,26.8015,-97.4706,0.0,5.7,141.0,7.6,'11111222,11111222,11111222' 
TCOON,ioos:station:TCOON:003:1,2008-10-03T23:00:00Z,26.8015,-97.4706,0.0,6.4,148.0,7.2,'11111222,11111222,11111222' 
TCOON,ioos:station:TCOON:003:1,2008-10-04T00:00:00Z,26.8015,-97.4706,0.0,6.3,152.0,7.0,'11111222,11111222,11111222' 
TCOON,ioos:station:TCOON:003:1,2008-10-04T01:00:00Z,26.8015,-97.4706,0.0,5.6,144.0,6.3,'11111222,11111222,11111222' 
TCOON,ioos:station:TCOON:003:1,2008-10-04T02:00:00Z,26.8015,-97.4706,0.0,5.8,148.0,6.7,'11111222,11111222,11111222' 
TCOON,ioos:station:TCOON:003:1,2008-10-04T03:00:00Z,26.8015,-97.4706,0.0,5.1,143.0,5.8,'11111222,11111222,11111222' 
TCOON,ioos:station:TCOON:003:1,2008-10-04T04:00:00Z,26.8015,-97.4706,0.0,4.8,136.0,5.4,'11111222,11111222,11111222' 
TCOON,ioos:station:TCOON:003:1,2008-10-04T05:00:00Z,26.8015,-97.4706,0.0,4.3,134.0,5.1,'11111222,11111222,11111222' 
TCOON,ioos:station:TCOON:003:1,2008-10-04T06:00:00Z,26.8015,-97.4706,0.0,4.5,145.0,5.2,'11111222,11111222,11111222' 
TCOON,ioos:station:TCOON:003:1,2008-10-04T07:00:00Z,26.8015,-97.4706,0.0,4.1,145.0,4.8,'11111222,11111222,11111222' 
TCOON,ioos:station:TCOON:003:1,2008-10-04T08:00:00Z,26.8015,-97.4706,0.0,4.5,138.0,5.4,'11111222,11111222,11111222' 
TCOON,ioos:station:TCOON:003:1,2008-10-04T09:00:00Z,26.8015,-97.4706,0.0,5.0,155.0,5.9,'11111222,11111222,11111222' 
TCOON,ioos:station:TCOON:003:1,2008-10-04T10:00:00Z,26.8015,-97.4706,0.0,3.2,211.0,4.1,'11111222,11111222,11111222' 
TCOON,ioos:station:TCOON:003:1,2008-10-04T11:00:00Z,26.8015,-97.4706,0.0,1.5,222.0,1.8,'11111222,11111222,11111222' 
TCOON,ioos:station:TCOON:003:1,2008-10-04T12:00:00Z,26.8015,-97.4706,0.0,0.9,212.0,1.0,'11111222,11111222,11111222' 
TCOON,ioos:station:TCOON:003:1,2008-10-04T13:00:00Z,26.8015,-97.4706,0.0,3.0,155.0,3.5,'11111222,11111222,11111222' 
TCOON,ioos:station:TCOON:003:1,2008-10-04T14:00:00Z,26.8015,-97.4706,0.0,2.5,153.0,2.8,'11111222,11111222,11111222' 
TCOON,ioos:station:TCOON:003:1,2008-10-04T15:00:00Z,26.8015,-97.4706,0.0,4.8,149.0,5.4,'11111222,11111222,11111222' 
TCOON,ioos:station:TCOON:003:1,2008-10-04T16:00:00Z,26.8015,-97.4706,0.0,4.7,151.0,5.8,'11111222,11111222,11111222' 
TCOON,ioos:station:TCOON:003:1,2008-10-04T17:00:00Z,26.8015,-97.4706,0.0,5.4,151.0,6.3,'11111222,11111222,11111222' 
TCOON,ioos:station:TCOON:003:1,2008-10-04T18:00:00Z,26.8015,-97.4706,0.0,4.6,198.0,5.8,'11111222,11111222,11111222' 
TCOON,ioos:station:TCOON:003:1,2008-10-04T19:00:00Z,26.8015,-97.4706,0.0,6.4,133.0,7.4,'11111222,11111222,11111222' 
TCOON,ioos:station:TCOON:003:1,2008-10-04T20:00:00Z,26.8015,-97.4706,0.0,6.7,133.0,7.7,'11111222,11111222,11111222' 
TCOON,ioos:station:TCOON:003:1,2008-10-04T21:00:00Z,26.8015,-97.4706,0.0,8.0,129.0,9.5,'11111222,11111222,11111222' 
TCOON,ioos:station:TCOON:003:1,2008-10-04T22:00:00Z,26.8015,-97.4706,0.0,7.7,125.0,9.4,'11111222,11111222,11111222' 
TCOON,ioos:station:TCOON:003:1,2008-10-04T23:00:00Z,26.8015,-97.4706,0.0,7.9,127.0,9.1,'11111222,11111222,11111222' 
TCOON,ioos:station:TCOON:003:1,2008-10-05T00:00:00Z,26.8015,-97.4706,0.0,7.8,135.0,9.2,'11111222,11111222,11111222' 
TCOON,ioos:station:TCOON:003:1,2008-10-05T01:00:00Z,26.8015,-97.4706,0.0,7.1,137.0,8.6,'11111222,11111222,11111222' 
TCOON,ioos:station:TCOON:003:1,2008-10-05T02:00:00Z,26.8015,-97.4706,0.0,7.0,146.0,8.2,'11111222,11111222,11111222' 
TCOON,ioos:station:TCOON:003:1,2008-10-05T03:00:00Z,26.8015,-97.4706,0.0,6.4,156.0,7.2,'11111222,11111222,11111222' 
TCOON,ioos:station:TCOON:003:1,2008-10-05T04:00:00Z,26.8015,-97.4706,0.0,7.7,170.0,8.6,'11111222,11111222,11111222' 
TCOON,ioos:station:TCOON:003:1,2008-10-05T05:00:00Z,26.8015,-97.4706,0.0,6.8,158.0,8.2,'11111222,11111222,11111222' 
TCOON,ioos:station:TCOON:003:1,2008-10-05T06:00:00Z,26.8015,-97.4706,0.0,7.3,159.0,8.3,'11111222,11111222,11111222' 
TCOON,ioos:station:TCOON:003:1,2008-10-05T07:00:00Z,26.8015,-97.4706,0.0,8.2,153.0,9.5,'11111222,11111222,11111222' 
TCOON,ioos:station:TCOON:003:1,2008-10-05T08:00:00Z,26.8015,-97.4706,0.0,8.0,151.0,9.1,'11111222,11111222,11111222' 
TCOON,ioos:station:TCOON:003:1,2008-10-05T09:00:00Z,26.8015,-97.4706,0.0,8.6,131.0,10.2,'11111222,11111222,11111222' 
TCOON,ioos:station:TCOON:003:1,2008-10-05T10:00:00Z,26.8015,-97.4706,0.0,7.1,142.0,8.4,'11111222,11111222,11111222' 
TCOON,ioos:station:TCOON:003:1,2008-10-05T11:00:00Z,26.8015,-97.4706,0.0,6.5,138.0,7.5,'11111222,11111222,11111222' 
TCOON,ioos:station:TCOON:003:1,2008-10-05T12:00:00Z,26.8015,-97.4706,0.0,6.1,131.0,7.0,'11111222,11111222,11111222' 
TCOON,ioos:station:TCOON:003:1,2008-10-05T13:00:00Z,26.8015,-97.4706,0.0,7.1,139.0,8.1,'11111222,11111222,11111222' 
TCOON,ioos:station:TCOON:003:1,2008-10-05T14:00:00Z,26.8015,-97.4706,0.0,8.7,145.0,10.5,'11111222,11111222,11111222' 
TCOON,ioos:station:TCOON:003:1,2008-10-05T15:00:00Z,26.8015,-97.4706,0.0,8.2,145.0,9.3,'11111222,11111222,11111222' 
TCOON,ioos:station:TCOON:003:1,2008-10-05T16:00:00Z,26.8015,-97.4706,0.0,8.3,149.0,9.3,'11111222,11111222,11111222' 
TCOON,ioos:station:TCOON:003:1,2008-10-05T17:00:00Z,26.8015,-97.4706,0.0,9.0,150.0,9.9,'11111222,11111222,11111222' 
TCOON,ioos:station:TCOON:003:1,2008-10-05T18:00:00Z,26.8015,-97.4706,0.0,10.5,147.0,13.2,'11111222,11111222,11111222' 
TCOON,ioos:station:TCOON:003:1,2008-10-05T19:00:00Z,26.8015,-97.4706,0.0,10.2,142.0,13.1,'11111222,11111222,11111222' 
TCOON,ioos:station:TCOON:003:1,2008-10-05T20:00:00Z,26.8015,-97.4706,0.0,10.5,147.0,12.7,'11111222,11111222,11111222' 
TCOON,ioos:station:TCOON:003:1,2008-10-05T21:00:00Z,26.8015,-97.4706,0.0,11.0,145.0,12.4,'11111222,11111222,11111222' 
TCOON,ioos:station:TCOON:003:1,2008-10-05T22:00:00Z,26.8015,-97.4706,0.0,11.2,149.0,13.8,'11111222,11111222,11111222' 
TCOON,ioos:station:TCOON:003:1,2008-10-05T23:00:00Z,26.8015,-97.4706,0.0,10.4,145.0,11.7,'11111222,11111222,11111222' 
TCOON,ioos:station:TCOON:003:1,2008-10-06T00:00:00Z,26.8015,-97.4706,0.0,8.4,143.0,9.6,'11111222,11111222,11111222' 
TCOON,ioos:station:TCOON:003:1,2008-10-06T01:00:00Z,26.8015,-97.4706,0.0,8.5,146.0,9.8,'11111222,11111222,11111222' 
TCOON,ioos:station:TCOON:003:1,2008-10-06T02:00:00Z,26.8015,-97.4706,0.0,7.2,148.0,8.9,'11111222,11111222,11111222' 
TCOON,ioos:station:TCOON:003:1,2008-10-06T03:00:00Z,26.8015,-97.4706,0.0,7.8,147.0,8.9,'11111222,11111222,11111222' 
TCOON,ioos:station:TCOON:003:1,2008-10-06T04:00:00Z,26.8015,-97.4706,0.0,7.9,153.0,9.0,'11111222,11111222,11111222' 
TCOON,ioos:station:TCOON:003:1,2008-10-06T05:00:00Z,26.8015,-97.4706,0.0,7.7,154.0,9.0,'11111222,11111222,11111222' 
TCOON,ioos:station:TCOON:003:1,2008-10-06T06:00:00Z,26.8015,-97.4706,0.0,7.6,156.0,9.3,'11111222,11111222,11111222' 
TCOON,ioos:station:TCOON:003:1,2008-10-06T07:00:00Z,26.8015,-97.4706,0.0,8.3,162.0,9.2,'11111222,11111222,11111222' 
TCOON,ioos:station:TCOON:003:1,2008-10-06T08:00:00Z,26.8015,-97.4706,0.0,8.4,167.0,9.8,'11111222,11111222,11111222' 
TCOON,ioos:station:TCOON:003:1,2008-10-06T09:00:00Z,26.8015,-97.4706,0.0,9.3,167.0,10.7,'11111222,11111222,11111222' 
TCOON,ioos:station:TCOON:003:1,2008-10-06T10:00:00Z,26.8015,-97.4706,0.0,8.4,173.0,9.9,'11111222,11111222,11111222' 
TCOON,ioos:station:TCOON:003:1,2008-10-06T11:00:00Z,26.8015,-97.4706,0.0,8.7,173.0,10.5,'11111222,11111222,11111222' 
TCOON,ioos:station:TCOON:003:1,2008-10-06T12:00:00Z,26.8015,-97.4706,0.0,9.0,169.0,10.9,'11111222,11111222,11111222' 
TCOON,ioos:station:TCOON:003:1,2008-10-06T13:00:00Z,26.8015,-97.4706,0.0,9.5,170.0,11.5,'11111222,11111222,11111222' 
TCOON,ioos:station:TCOON:003:1,2008-10-06T14:00:00Z,26.8015,-97.4706,0.0,8.7,175.0,10.7,'11111222,11111222,11111222' 
TCOON,ioos:station:TCOON:003:1,2008-10-06T15:00:00Z,26.8015,-97.4706,0.0,7.3,169.0,8.3,'11111222,11111222,11111222' 
TCOON,ioos:station:TCOON:003:1,2008-10-06T16:00:00Z,26.8015,-97.4706,0.0,7.7,160.0,8.9,'11111222,11111222,11111222' 
TCOON,ioos:station:TCOON:003:1,2008-10-06T17:00:00Z,26.8015,-97.4706,0.0,8.6,162.0,9.6,'11111222,11111222,11111222' 
TCOON,ioos:station:TCOON:003:1,2008-10-06T18:00:00Z,26.8015,-97.4706,0.0,7.9,166.0,9.1,'11111222,11111222,11111222' 
TCOON,ioos:station:TCOON:003:1,2008-10-06T19:00:00Z,26.8015,-97.4706,0.0,8.7,158.0,9.8,'11111222,11111222,11111222' 
TCOON,ioos:station:TCOON:003:1,2008-10-06T20:00:00Z,26.8015,-97.4706,0.0,8.2,158.0,10.0,'11111222,11111222,11111222' 
TCOON,ioos:station:TCOON:003:1,2008-10-06T21:00:00Z,26.8015,-97.4706,0.0,8.7,149.0,10.3,'11111222,11111222,11111222' 
TCOON,ioos:station:TCOON:003:1,2008-10-06T22:00:00Z,26.8015,-97.4706,0.0,8.6,147.0,10.2,'11111222,11111222,11111222' 
TCOON,ioos:station:TCOON:003:1,2008-10-06T23:00:00Z,26.8015,-97.4706,0.0,9.2,152.0,10.8,'11111222,11111222,11111222' 
TCOON,ioos:station:TCOON:003:1,2008-10-07T00:00:00Z,26.8015,-97.4706,0.0,9.5,155.0,11.1,'11111222,11111222,11111222' 
TCOON,ioos:station:TCOON:003:1,2008-10-07T01:00:00Z,26.8015,-97.4706,0.0,7.9,156.0,9.1,'11111222,11111222,11111222' 
TCOON,ioos:station:TCOON:003:1,2008-10-07T02:00:00Z,26.8015,-97.4706,0.0,5.4,157.0,6.9,'11111222,11111222,11111222' 
TCOON,ioos:station:TCOON:003:1,2008-10-07T03:00:00Z,26.8015,-97.4706,0.0,5.7,150.0,6.6,'11111222,11111222,11111222' 
TCOON,ioos:station:TCOON:003:1,2008-10-07T04:00:00Z,26.8015,-97.4706,0.0,6.9,153.0,8.3,'11111222,11111222,11111222' 
TCOON,ioos:station:TCOON:003:1,2008-10-07T05:00:00Z,26.8015,-97.4706,0.0,5.7,155.0,6.9,'11111222,11111222,11111222' 
TCOON,ioos:station:TCOON:003:1,2008-10-07T06:00:00Z,26.8015,-97.4706,0.0,5.6,159.0,6.6,'11111222,11111222,11111222' 
TCOON,ioos:station:TCOON:003:1,2008-10-07T07:00:00Z,26.8015,-97.4706,0.0,3.4,157.0,3.7,'11111222,11111222,11111222' 
TCOON,ioos:station:TCOON:003:1,2008-10-07T08:00:00Z,26.8015,-97.4706,0.0,4.6,164.0,5.1,'11111222,11111222,11111222' 
TCOON,ioos:station:TCOON:003:1,2008-10-07T09:00:00Z,26.8015,-97.4706,0.0,2.7,167.0,3.0,'11111222,11111222,11111222' 
TCOON,ioos:station:TCOON:003:1,2008-10-07T10:00:00Z,26.8015,-97.4706,0.0,0.3,167.0,0.5,'11111222,11111222,11111222' 
TCOON,ioos:station:TCOON:003:1,2008-10-07T11:00:00Z,26.8015,-97.4706,0.0,0.0,146.0,99.0,'11111222,11111222,11144222' 
TCOON,ioos:station:TCOON:003:1,2008-10-07T12:00:00Z,26.8015,-97.4706,0.0,2.7,156.0,2.9,'11111222,11111222,11111222' 
TCOON,ioos:station:TCOON:003:1,2008-10-07T13:00:00Z,26.8015,-97.4706,0.0,1.5,360.0,1.6,'11111222,11144222,11111222' 
TCOON,ioos:station:TCOON:003:1,2008-10-07T14:00:00Z,26.8015,-97.4706,0.0,1.4,358.0,1.8,'11111222,11111222,11111222' 
TCOON,ioos:station:TCOON:003:1,2008-10-07T15:00:00Z,26.8015,-97.4706,0.0,1.7,25.0,1.9,'11111222,11111222,11111222' 
TCOON,ioos:station:TCOON:003:1,2008-10-07T16:00:00Z,26.8015,-97.4706,0.0,0.4,26.0,0.6,'11111222,11111222,11111222' 
TCOON,ioos:station:TCOON:003:1,2008-10-07T17:00:00Z,26.8015,-97.4706,0.0,6.0,38.0,6.8,'11111222,11111222,11111222' 
TCOON,ioos:station:TCOON:003:1,2008-10-07T18:00:00Z,26.8015,-97.4706,0.0,4.2,63.0,5.5,'11111222,11111222,11111222' 
TCOON,ioos:station:TCOON:003:1,2008-10-07T19:00:00Z,26.8015,-97.4706,0.0,8.5,50.0,9.9,'11111222,11111222,11111222' 
TCOON,ioos:station:TCOON:003:1,2008-10-07T20:00:00Z,26.8015,-97.4706,0.0,2.8,21.0,3.2,'11111222,11111222,11111222' 
TCOON,ioos:station:TCOON:003:1,2008-10-07T21:00:00Z,26.8015,-97.4706,0.0,6.4,72.0,8.1,'11111222,11111222,11111222' 
TCOON,ioos:station:TCOON:003:1,2008-10-07T22:00:00Z,26.8015,-97.4706,0.0,7.4,84.0,8.8,'11111222,11111222,11111222' 
TCOON,ioos:station:TCOON:003:1,2008-10-07T23:00:00Z,26.8015,-97.4706,0.0,7.2,108.0,8.6,'11111222,11111222,11111222' 
TCOON,ioos:station:TCOON:003:1,2008-10-08T00:00:00Z,26.8015,-97.4706,0.0,2.6,130.0,3.2,'11111222,11111222,11111222' 
TCOON,ioos:station:TCOON:003:1,2008-10-08T01:00:00Z,26.8015,-97.4706,0.0,1.1,55.0,1.2,'11111222,11111222,11111222' 
TCOON,ioos:station:TCOON:003:1,2008-10-08T02:00:00Z,26.8015,-97.4706,0.0,3.5,5.0,3.9,'11111222,11111222,11111222' 
TCOON,ioos:station:TCOON:003:1,2008-10-08T03:00:00Z,26.8015,-97.4706,0.0,2.6,342.0,2.9,'11111222,11111222,11111222' 
TCOON,ioos:station:TCOON:003:1,2008-10-08T04:00:00Z,26.8015,-97.4706,0.0,2.1,14.0,2.5,'11111222,11111222,11111222' 
TCOON,ioos:station:TCOON:003:1,2008-10-08T05:00:00Z,26.8015,-97.4706,0.0,2.3,24.0,2.7,'11111222,11111222,11111222' 
TCOON,ioos:station:TCOON:003:1,2008-10-08T06:00:00Z,26.8015,-97.4706,0.0,5.7,50.0,6.7,'11111222,11111222,11111222' 
TCOON,ioos:station:TCOON:003:1,2008-10-08T07:00:00Z,26.8015,-97.4706,0.0,5.5,37.0,6.2,'11111222,11111222,11111222' 
TCOON,ioos:station:TCOON:003:1,2008-10-08T08:00:00Z,26.8015,-97.4706,0.0,5.1,39.0,5.9,'11111222,11111222,11111222' 
TCOON,ioos:station:TCOON:003:1,2008-10-08T09:00:00Z,26.8015,-97.4706,0.0,5.7,39.0,6.6,'11111222,11111222,11111222' 
TCOON,ioos:station:TCOON:003:1,2008-10-08T10:00:00Z,26.8015,-97.4706,0.0,5.9,45.0,6.8,'11111222,11111222,11111222' 
TCOON,ioos:station:TCOON:003:1,2008-10-08T11:00:00Z,26.8015,-97.4706,0.0,4.9,42.0,5.9,'11111222,11111222,11111222' 
TCOON,ioos:station:TCOON:003:1,2008-10-08T12:00:00Z,26.8015,-97.4706,0.0,4.2,18.0,5.3,'11111222,11111222,11111222' 
TCOON,ioos:station:TCOON:003:1,2008-10-08T13:00:00Z,26.8015,-97.4706,0.0,3.1,6.0,3.6,'11111222,11111222,11111222' 
TCOON,ioos:station:TCOON:003:1,2008-10-08T14:00:00Z,26.8015,-97.4706,0.0,3.7,357.0,4.1,'11111222,11111222,11111222' 
TCOON,ioos:station:TCOON:003:1,2008-10-08T15:00:00Z,26.8015,-97.4706,0.0,4.7,42.0,7.0,'11111222,11111222,11111222' 
TCOON,ioos:station:TCOON:003:1,2008-10-08T16:00:00Z,26.8015,-97.4706,0.0,5.2,38.0,6.4,'11111222,11111222,11111222' 
TCOON,ioos:station:TCOON:003:1,2008-10-08T17:00:00Z,26.8015,-97.4706,0.0,5.3,26.0,6.6,'11111222,11111222,11111222' 
TCOON,ioos:station:TCOON:003:1,2008-10-08T18:00:00Z,26.8015,-97.4706,0.0,5.6,34.0,7.6,'11111222,11111222,11111222' 
TCOON,ioos:station:TCOON:003:1,2008-10-08T19:00:00Z,26.8015,-97.4706,0.0,4.7,53.0,6.0,'11111222,11111222,11111222' 
TCOON,ioos:station:TCOON:003:1,2008-10-08T20:00:00Z,26.8015,-97.4706,0.0,4.8,64.0,6.1,'11111222,11111222,11111222' 
TCOON,ioos:station:TCOON:003:1,2008-10-08T21:00:00Z,26.8015,-97.4706,0.0,4.7,103.0,5.7,'11111222,11111222,11111222' 
TCOON,ioos:station:TCOON:003:1,2008-10-08T22:00:00Z,26.8015,-97.4706,0.0,3.3,104.0,4.2,'11111222,11111222,11111222' 
TCOON,ioos:station:TCOON:003:1,2008-10-08T23:00:00Z,26.8015,-97.4706,0.0,4.1,125.0,4.6,'11111222,11111222,11111222' 
TCOON,ioos:station:TCOON:003:1,2008-10-09T00:00:00Z,26.8015,-97.4706,0.0,3.6,141.0,4.3,'11111222,11111222,11111222' 
TCOON,ioos:station:TCOON:003:1,2008-10-09T01:00:00Z,26.8015,-97.4706,0.0,3.1,135.0,3.4,'11111222,11111222,11111222' 
TCOON,ioos:station:TCOON:003:1,2008-10-09T02:00:00Z,26.8015,-97.4706,0.0,3.0,164.0,3.4,'11111222,11111222,11111222' 
TCOON,ioos:station:TCOON:003:1,2008-10-09T03:00:00Z,26.8015,-97.4706,0.0,1.8,230.0,2.0,'11111222,11111222,11111222' 
TCOON,ioos:station:TCOON:003:1,2008-10-09T04:00:00Z,26.8015,-97.4706,0.0,1.7,253.0,2.0,'11111222,11111222,11111222' 
TCOON,ioos:station:TCOON:003:1,2008-10-09T05:00:00Z,26.8015,-97.4706,0.0,2.4,259.0,2.7,'11111222,11111222,11111222' 
TCOON,ioos:station:TCOON:003:1,2008-10-09T06:00:00Z,26.8015,-97.4706,0.0,2.8,255.0,3.4,'11111222,11111222,11111222' 
TCOON,ioos:station:TCOON:003:1,2008-10-09T07:00:00Z,26.8015,-97.4706,0.0,3.2,254.0,3.8,'11111222,11111222,11111222' 
TCOON,ioos:station:TCOON:003:1,2008-10-09T08:00:00Z,26.8015,-97.4706,0.0,2.2,296.0,2.5,'11111222,11111222,11111222' 
TCOON,ioos:station:TCOON:003:1,2008-10-09T09:00:00Z,26.8015,-97.4706,0.0,2.6,322.0,2.9,'11111222,11111222,11111222' 
TCOON,ioos:station:TCOON:003:1,2008-10-09T10:00:00Z,26.8015,-97.4706,0.0,2.2,344.0,2.6,'11111222,11111222,11111222' 
TCOON,ioos:station:TCOON:003:1,2008-10-09T11:00:00Z,26.8015,-97.4706,0.0,3.0,352.0,3.5,'11111222,11111222,11111222' 
TCOON,ioos:station:TCOON:003:1,2008-10-09T12:00:00Z,26.8015,-97.4706,0.0,3.8,343.0,4.3,'11111222,11111222,11111222' 